Weather History for Dickinson, ND

Change the Weather History Date:

Tuesday, July 30, 2013

  Actual Average Record
Temperature  
Mean Temperature 62 °F 71 °F  
Max Temperature 75 °F 86 °F 103 °F (2006)
Min Temperature 49 °F 56 °F 41 °F (1925)
Degree Days  
Heating Degree Days 3 1  
Month to date heating degree days 32 36  
Since 1 June heating degree days 156 173  
Since 1 July heating degree days 32 36  
Cooling Degree Days 0 6  
Month to date cooling degree days 107 156  
Year to date cooling degree days 142 220  
Since 1 June cooling degree days 133 210  
Growing Degree Days 10 (Base 50)    
Moisture  
Dew Point 55 °F    
Average Humidity 77    
Maximum Humidity 96    
Minimum Humidity 57    
Precipitation  
Precipitation 0.15 in 0.06 in 0.79 in (1961)
Month to date precipitation 2.08 2.38  
Year to date precipitation 11.49 10.69  
Sea Level Pressure  
Sea Level Pressure 30.10 in    
Wind  
Wind Speed 2 mph (SSW)    
Max Wind Speed 10 mph    
Max Gust Speed 14 mph    
Visibility 8 miles    
Events Rain    
T = Trace of Precipitation, MM = Missing Value Source: NWS Daily Summary

Daily Weather History Graph

Daily Weather History Graph

Search for Another Location

Airport:

Trip Planner

Search our weather history database for the weather conditions in past years. The results will help you decide how hot, cold, wet, or windy it might be!

Date:

Astronomy

Jul. 30, 2013 Rise Set
Actual Time 5:29 AM MDT 8:25 PM MDT
Civil Twilight 4:53 AM MDT 9:00 PM MDT
Nautical Twilight 4:07 AM MDT 9:46 PM MDT
Astronomical Twilight 3:13 AM MDT 10:40 PM MDT
Moon No Moon Rise 2:46 PM MDT (7/30)
Length of Visible Light 16h 07m
Length of Day
14h 56m
Last Quarter, 40% of the Moon is Illuminated
Jul 30
Last Quarter
Aug 6
New
Aug 14
First Quarter
Aug 20
Full
Aug 28
Last Quarter

Hourly Weather History & Observations

Time (MDT) Temp. Dew Point Humidity Pressure Visibility Wind Dir Wind Speed Gust Speed Precip Events Conditions
12:56 AM 53.1 °F 51.1 °F 93% 30.06 in 6.0 mi Calm Calm - N/A   Clear
1:56 AM 55.0 °F 52.0 °F 89% 30.05 in 8.0 mi Calm Calm - N/A   Clear
2:48 AM 50.0 °F 48.2 °F 94% 30.08 in 2.5 mi Calm Calm - N/A   Clear
2:56 AM 50.0 °F 48.0 °F 93% 30.05 in 6.0 mi Calm Calm - N/A   Clear
3:19 AM 48.2 °F 46.4 °F 93% 30.08 in 8.0 mi South 4.6 mph - N/A   Partly Cloudy
3:56 AM 50.0 °F 46.9 °F 89% 30.07 in 7.0 mi South 3.5 mph - N/A   Clear
4:18 AM 50.0 °F 48.2 °F 94% 30.09 in 7.0 mi South 3.5 mph - N/A   Scattered Clouds
4:48 AM 51.8 °F 50.0 °F 94% 30.09 in 2.5 mi Calm Calm - N/A   Partly Cloudy
4:56 AM 52.0 °F 50.0 °F 93% 30.06 in 3.0 mi Calm Calm - N/A   Clear
5:56 AM 54.0 °F 52.0 °F 93% 30.06 in 4.0 mi Calm Calm - N/A   Scattered Clouds
7:56 AM 57.0 °F 55.0 °F 93% 30.12 in 3.0 mi Calm Calm - N/A   Overcast
8:56 AM 59.0 °F 57.9 °F 96% 30.10 in 4.0 mi NE 4.6 mph - 0.06 in   Mostly Cloudy
10:56 AM 66.0 °F 60.1 °F 81% 30.13 in 10.0 mi Variable 4.6 mph - N/A   Partly Cloudy
11:36 AM 66.2 °F 59.0 °F 78% 30.14 in 10.0 mi Calm Calm - N/A   Mostly Cloudy
11:48 AM 66.2 °F 59.0 °F 78% 30.15 in 10.0 mi Calm Calm - N/A   Mostly Cloudy
11:56 AM 68.0 °F 59.0 °F 73% 30.13 in 10.0 mi Calm Calm - N/A   Mostly Cloudy
12:56 PM 69.1 °F 57.0 °F 65% 30.10 in 10.0 mi South 6.9 mph - N/A   Mostly Cloudy
1:56 PM 70.0 °F 57.0 °F 63% 30.09 in 10.0 mi Calm Calm - N/A   Scattered Clouds
2:04 PM 71.6 °F 57.2 °F 60% 30.11 in 10.0 mi SSW 4.6 mph - N/A   Mostly Cloudy
2:12 PM 71.6 °F 57.2 °F 60% 30.11 in 10.0 mi Calm Calm - N/A   Scattered Clouds
2:56 PM 73.0 °F 57.9 °F 59% 30.09 in 10.0 mi Variable 5.8 mph - N/A   Clear
3:56 PM 72.0 °F 57.0 °F 59% 30.09 in 10.0 mi Variable 4.6 mph - N/A   Partly Cloudy
4:56 PM 71.1 °F 57.0 °F 61% 30.08 in 10.0 mi Calm Calm - 0.00 in Rain Light Rain
5:56 PM 70.0 °F 61.0 °F 73% 30.08 in 10.0 mi SW 6.9 mph - 0.02 in   Clear
6:56 PM 71.1 °F 61.0 °F 70% 30.09 in 10.0 mi SSW 4.6 mph - N/A   Mostly Cloudy
7:56 PM 66.9 °F 61.0 °F 81% 30.10 in 10.0 mi South 3.5 mph - N/A   Mostly Cloudy
8:56 PM 64.0 °F 60.1 °F 87% 30.12 in 10.0 mi Calm Calm - N/A   Mostly Cloudy
9:56 PM 63.0 °F 60.1 °F 90% 30.14 in 10.0 mi Calm Calm - N/A   Partly Cloudy
10:56 PM 63.0 °F 57.0 °F 81% 30.13 in 10.0 mi NNE 4.6 mph - N/A   Scattered Clouds
11:56 PM 63.0 °F 57.0 °F 81% 30.14 in 6.0 mi NNW 4.6 mph - 0.03 in Rain Light Rain